Regional Weather Roundup
Issued by NWS

Home | Current Version | Previous Version | Text Only | Print | Product List | Glossary On
Versions: 1 2 3 4 5 6 7 8 9 10 11 12 13 14 15 16 17 18 19 20 21 22 23 24 25 26 27 28 29 30 31 32 33 34 35 36 37 38 39 40 41 42 43 44 45 46 47 48 49 50
000
ASUS44 KFWD 221415
RWRTX
NORTH TEXAS HOURLY WEATHER ROUNDUP
NATIONAL WEATHER SERVICE FORT WORTH TX
800 AM CST SUN JAN 22 2017

NOTE: "FAIR" INDICATES FEW OR NO CLOUDS BELOW 12,000 FEET WITH NO
SIGNIFICANT WEATHER AND/OR OBSTRUCTIONS TO VISIBILITY.

TXZ118-119-221500-
DALLAS/FORT WORTH METROPLEX

CITY           SKY/WX    TMP DP  RH WIND       PRES   REMARKS
DFW AIRPORT    PTCLDY    52  39  61 W18G25    29.46R
DALLAS LOVE    PTCLDY    52  38  58 NW16G22   29.48R
FTW MEACHAM    CLEAR     49  39  68 W18G35    29.50R
DAL-EXECUTIVE  CLEAR     52  39  61 NW20G28   29.48R
FTW-ALLIANCE   PTCLDY    48  39  71 W14G26    29.49R
FTW-NAS-JRB    PTCLDY    49  40  71 W20G35    29.52R
FTW-SPINKS     CLEAR     52  41  66 W22G32    29.51R
ARLINGTON      CLEAR     52  40  63 W17G31    29.49R
GRAND PRAIRIE  CLEAR     52  55 100 W17G25    29.50
ADDISON        CLEAR     52  39  62 MISG      29.47R
MESQUITE       CLEAR     52  36  54 W18       29.46R
LANCASTER      CLEAR     51  37  59 NW14      29.49R
$$

TXZ091>094-102>105-117-120-121-131>134-221500-
NORTH CENTRAL TEXAS

CITY           SKY/WX    TMP DP  RH WIND       PRES   REMARKS
SHRMAN/DENISON MOCLDY    47  38  72 W9        29.47R
GAINESVILLE    PTCLDY    46  38  74 NW16G23   29.51R WCI  39
BOWIE          MOCLDY    45  42  89 NW22      29.54R WCI  36
BRIDGEPORT     PTCLDY    45  42  89 NW15G23   29.57R WCI  38
DECATUR        CLEAR     44  37  78 NW15G23   29.53R WCI  37
DENTON         CLEAR     47  38  71 NW18G24   29.48R WCI  40
MCKINNEY       PTCLDY    48  36  63 W18G26    29.45R
BONHAM         CLEAR     46  34  61 W10       29.43R
GREENVILLE     CLEAR     48  34  57 W6        29.45R
ROCKWALL       CLEAR     50  36  57 W12G18    29.45R
TERRELL        CLEAR     45  36  70 W8        29.46R
WAXAHACHIE     CLEAR     50  39  65 W10       29.49R
CLEBURNE       CLEAR     50  41  71 W24G31    29.53R
GRANBURY       PTCLDY    51  42  70 NW21G31   29.57R
$$

TXZ083>090-098>101-113>116-127>130-139>142-154-155-221500-
WESTERN NORTH TEXAS

CITY           SKY/WX    TMP DP  RH WIND       PRES   REMARKS
WICHITA FALLS  CLOUDY    48  43  82 MISG      29.60R
WF-KICKAPOO    CLOUDY    48  44  85 NW14G21   29.62R
VERNON         CLOUDY    48  39  72 NW20      29.68R
ABILENE        CLOUDY    49  39  68 NW23G35   29.72R
ABILENE-DYESS  CLOUDY    50  38  64 N20G26    29.73R
GRAHAM         CLOUDY    48  43  81 NW18G31   29.62R
BRECKENRIDGE   CLOUDY    52  42  69 NW21G33   29.66R
CISCO          CLOUDY    50  41  71 NW24G32   29.65R
RANGER         CLOUDY    50  41  71 NW22G36   29.62R
MINERAL WELLS  MOCLDY    48  41  76 NW22G35   29.55R
STEPHENVILLE   MOCLDY    51  41  69 NW29G37   29.60R
COMANCHE       CLOUDY    52  42  68 NW22G31   29.63R
BROWNWOOD      CLOUDY    52  39  62 NW23G38   29.66R
COLEMAN        CLOUDY    52  37  58 NW23G35   29.71R
$$

TXZ143>147-156>162-174-175-221500-
CENTRAL TEXAS

CITY           SKY/WX    TMP DP  RH WIND       PRES   REMARKS
WACO           CLOUDY    56  42  59 W20G28    29.52R
WACO-MCGREGOR  CLOUDY    55  42  61 W20G25    29.54R
HILLSBORO      PTCLDY    53  43  68 W17G25    29.50R
CORSICANA      CLOUDY    52  37  56 SW9       29.49R
MEXIA          CLOUDY    54  33  43 W16       29.49R
HEARNE         CLOUDY    57  34  42 W17G28    29.55R
CAMERON        CLOUDY    59  34  39 W21G32    29.55R
TEMPLE         CLOUDY    57  38  48 W26G35    29.56R
KILLEEN        MOCLDY    55  36  47 NW22G37   29.58R
KILLEEN-SKYLRK CLOUDY    56  37  49 W25G36    29.58R
FORT HOOD      PTCLDY    55  38  51 W29G38    29.54R
GATESVILLE     CLOUDY    55  41  58 NW22G30   29.60R
HAMILTON       CLOUDY    53  41  63 NW30G46   29.59R
LAMPASAS       PTCLDY    55  40  55 NW22G39   29.61R
$$

TXZ095>097-106>112-122>126-135>138-148>153-164>167-221500-
EAST TEXAS

CITY           SKY/WX    TMP DP  RH WIND       PRES   REMARKS
PARIS          CLEAR     46  37  71 W12       29.40S
SULPHUR SPRNGS CLEAR     47  39  74 SW6       29.45R
MOUNT PLEASANT PTCLDY    53  40  62 SW10      29.43R
GILMER         CLOUDY    50  38  62 SW3       29.43R
MINEOLA        PTCLDY    50  37  62 W7        29.44R
TYLER          PTCLDY    51  36  56 SW9       29.44R
LONGVIEW       PTCLDY    53  39  59 SW8       29.43R
MARSHALL       PTCLDY    53  40  62 SW6       29.45R
ATHENS         CLOUDY    50  34  53 W5        29.46R
PALESTINE      CLOUDY    53  37  53 SW10      29.48R
JACKSONVILLE   PTCLDY    51  36  55 SW6       29.47R
HENDERSON      PTCLDY    51  37  57 SW5       29.46R
CENTER         MOSUNNY   55  38  51 SW8       29.46R
NACOGDOCHES    CLEAR     52  37  58 SW6       29.46R
LUFKIN         PTCLDY    54  37  52 SW13      29.48S
$$

SUPPLEMENTAL OBSERVATIONS (CENTRAL)

CITY           SKY/WX    TMP DP  RH WIND       PRES   REMARKS
DENISON DAM      N/A     48  37  66 W21         N/A
PAT MAYSE LAKE   N/A     50  41  71 SW6         N/A
GREENVILLE       N/A     48  36  61 W8          N/A
CEDAR HILL       N/A     54  41  62 W7G17       N/A
ATHENS           N/A     52  34  50 W3G12       N/A
LAKE LIMESTONE   N/A     55  32  41 W15         N/A
MCGREGOR         N/A     55  41  58 W13         N/A
TEMPLE           N/A     57  36  44 W15G31      N/A
$$

SUPPLEMENTAL OBSERVATIONS (WEST)

CITY           SKY/WX    TMP DP  RH WIND       PRES   REMARKS
MILLERS CREEK    N/A     48  39  71 NW26G33     N/A
POSSUM KINGDOM   N/A     48  41  76 NW22G30     N/A
GRANBURY         N/A     50  41  71 NW26G35     N/A
COMANCHE         N/A     52  39  62 NW25G44     N/A
HAMBY            N/A     48  37  66 NW21G29     N/A
IVIE RESERVOIR   N/A     52  32  46 W24G31      N/A
COLORADO BEND    N/A     54  32  43 N18G31      N/A
$$

SUPPLEMENTAL OBSERVATIONS (EAST)

CITY           SKY/WX    TMP DP  RH WIND       PRES   REMARKS
CLARKSVILLE      N/A     50  41  71 W3          N/A
TEXARKANA        N/A     50  48  93 CALM        N/A
LINDEN           N/A     52  43  71 W3          N/A
CADDO LAKE       N/A    N/A N/A N/A S1          N/A
GILMER           N/A     52  37  58 W7          N/A
HENDERSON        N/A     54  36  50 SW9         N/A
LUFKIN           N/A     54  36  50 MISG        N/A
N SABINE NF      N/A     54  39  58 MISG        N/A
S SABINE NF      N/A     52  41  66 SW2         N/A
$$

SUPPLEMENTAL OBSERVATIONS ARE A COLLECTION OF AUTOMATED INSTRUMENTS
THAT ARE MAINTAINED BY A VARIETY OF FEDERAL AND STATE AGENCIES.
CERTAIN ELEMENTS...SUCH AS HUMIDITY VALUES AND SUSTAINED WIND
SPEEDS...MAY BE APPROXIMATED.





USA.gov is the U.S. government's official web portal to all federal, state and local government web resources and services.